Location: Heiligenberg
(48.5381°N, 7.3897°E)
Time: 00:12:19
(UTC+00:00)

Lacrosse 5 - Pass Details

Date: 26 May 2022
Orbit: 714 x 724 km, 57.0° (Epoch: 09 March)

Event Time Altitude Azimuth Distance (km) Brightness Sun altitude
Exits shadow 00:58:31 28° 173° (S) 1,350 2.8 -17.5°
Maximum altitude 01:00:23 37° 131° (SE) 1,115 2.7 -17.3°
Drops below altitude 10° 01:05:03 10° 65° (ENE) 2,217 5.1 -17.0°
Sets 01:07:34 0° 57° (ENE) 3,140 6.2 -16.9°
